DW9313 Weather Reports


time (UTC)temp
C
wind
direction
speed
KPH
gust
KPH
rain 1hr
cm
rain 24hr
cm
rain mn
cm
humidity
%
barometer
mb
20260502164247 11 135 4.8 11.3 0.03 0.10 0.10 94 1011.1
20260502163748 11 128 8.0 16.1 0.00 0.08 0.08 93 1011.2
20260502163247 11 133 9.7 16.1 0.00 0.08 0.08 93 1011.2
20260502162747 11 132 4.8 9.7 0.00 0.08 0.08 93 1011.2
20260502162247 11 123 8.0 12.9 0.00 0.08 0.08 92 1011.2
20260502161748 11 143 8.0 12.9 0.00 0.08 0.08 92 1011.3
20260502160747 11 114 6.4 9.7 0.00 0.08 0.08 92 1011.4
20260502160247 11 131 4.8 12.9 0.00 0.08 0.08 91 1011.4
20260502152248 12 105 8.0 11.3 0.00 0.08 0.08 90 1011.8
20260502151749 12 140 4.8 9.7 0.00 0.08 0.08 90 1012.1
20260502151248 12 130 6.4 11.3 0.00 0.08 0.08 89 1012.1
20260502150747 12 139 8.0 12.9 0.00 0.08 0.08 89 1012.2
20260502150247 12 128 8.0 12.9 0.03 0.08 0.08 89 1012.3
20260502130251 12 145 4.8 11.3 0.00 0.00 0.00 88 1013.4
20260502123250 12 145 9.7 16.1 0.00 0.00 0.00 90 1013.6
20260502122750 12 169 4.8 11.3 0.00 0.00 0.00 89 1013.6
20260502122249 12 165 9.7 16.1 0.00 0.00 0.00 89 1013.6
20260502121249 12 160 8.0 14.5 0.00 0.00 0.00 89 1013.7
20260502120749 12 167 4.8 11.3 0.00 0.00 0.00 89 1013.8
20260502120249 12 167 4.8 12.9 0.00 0.00 0.00 88 1013.9
20260502115749 12 180 1.6 11.3 0.00 0.00 0.00 89 1013.9
20260502115250 12 161 9.7 16.1 0.00 0.00 0.00 88 1013.9
20260502114750 12 155 6.4 12.9 0.00 0.00 0.00 89 1013.9
20260502114249 12 189 4.8 14.5 0.00 0.00 0.00 89 1013.9
20260502113251 12 144 9.7 19.3 0.00 0.00 0.00 88 1013.9
20260502112749 12 149 8.0 12.9 0.00 0.00 0.00 88 1013.9
20260502112250 12 185 6.4 19.3 0.00 0.00 0.00 88 1013.9
20260502111749 12 184 1.6 9.7 0.00 0.00 0.00 89 1013.9
20260502111250 12 173 4.8 11.3 0.00 0.00 0.00 89 1013.9
20260502110749 12 146 8.0 19.3 0.00 0.00 0.00 88 1013.9
20260502110249 12 175 8.0 14.5 0.00 0.00 0.00 89 1014.0
20260502105749 12 162 9.7 20.9 0.00 0.00 0.00 89 1014.0
20260502105250 12 164 8.0 14.5 0.00 0.00 0.00 89 1014.0
20260502104750 12 162 4.8 11.3 0.00 0.00 0.00 90 1014.0
20260502104249 12 171 8.0 14.5 0.00 0.00 0.00 89 1014.0
20260502103250 12 177 11.3 19.3 0.00 0.00 0.00 88 1014.0
20260502102749 12 139 9.7 16.1 0.00 0.00 0.00 89 1013.9
20260502102250 12 149 6.4 16.1 0.00 0.00 0.00 88 1014.0
20260502100250 13 177 6.4 16.1 0.00 0.00 0.00 87 1013.9
20260502090750 12 145 9.7 19.3 0.00 0.00 0.00 90 1014.3
20260502090251 12 147 9.7 19.3 0.00 0.00 0.00 90 1014.3
20260502071251 11 170 1.6 8.0 0.00 0.00 0.00 91 1014.5
20260502070251 11 146 1.6 8.0 0.00 0.00 0.00 92 1014.5
20260502065751 11 149 3.2 11.3 0.00 0.00 0.00 91 1014.5
20260502065252 11 165 6.4 11.3 0.00 0.00 0.00 92 1014.5
20260502064751 11 163 4.8 12.9 0.00 0.00 0.00 92 1014.6
20260502064253 11 155 1.6 9.7 0.00 0.00 0.00 92 1014.6
20260502063251 11 160 3.2 8.0 0.00 0.00 0.00 92 1014.6
20260502062752 11 210 3.2 12.9 0.00 0.00 0.00 92 1014.6
20260502062251 11 147 4.8 14.5 0.00 0.00 0.00 92 1014.6
20260502061752 11 168 3.2 9.7 0.00 0.00 0.00 93 1014.6
20260502061251 11 156 4.8 11.3 0.00 0.00 0.00 93 1014.6
20260502060752 11 177 3.2 9.7 0.00 0.00 0.00 93 1014.6
20260502055753 11 155 3.2 9.7 0.00 0.00 0.00 93 1014.6
20260502055252 11 170 1.6 8.0 0.00 0.00 0.00 93 1014.5
20260502054752 11 142 1.6 9.7 0.00 0.00 0.00 93 1014.5
20260502053752 11 160 1.6 8.0 0.00 0.00 0.00 93 1014.5
20260502053251 11 171 1.6 8.0 0.00 0.00 0.00 93 1014.6
20260502052753 11 169 3.2 9.7 0.00 0.00 0.00 93 1014.6
20260502052253 11 140 3.2 11.3 0.00 0.00 0.00 93 1014.6
20260502050752 11 142 3.2 9.7 0.00 0.00 0.00 93 1014.7
20260502045753 11 151 1.6 4.8 0.00 0.00 0.00 93 1014.8
20260502045252 11 145 1.6 4.8 0.00 0.00 0.00 92 1014.8
20260502044752 11 151 1.6 4.8 0.00 0.00 0.00 92 1014.7
20260502044254 11 141 1.6 4.8 0.00 0.00 0.00 92 1014.7
20260502043752 11 135 3.2 9.7 0.00 0.00 0.00 92 1014.8
20260502043254 11 173 3.2 8.0 0.00 0.00 0.00 92 1014.8
20260502042752 11 150 1.6 4.8 0.00 0.00 0.00 92 1014.9
20260502042253 11 153 1.6 9.7 0.00 0.00 0.00 92 1014.8
20260502041753 11 173 1.6 11.3 0.00 0.00 0.00 92 1014.9
20260502041252 11 173 3.2 9.7 0.00 0.00 0.00 92 1014.9
20260502040754 11 160 3.2 9.7 0.00 0.00 0.00 92 1014.9
20260502040252 11 151 3.2 9.7 0.00 0.00 0.00 92 1015.0
20260502035253 11 162 3.2 11.3 0.00 0.00 0.00 93 1015.1
20260502034754 11 139 1.6 8.0 0.00 0.00 0.00 93 1015.2
20260502034253 11 173 0.0 1.6 0.00 0.00 0.00 92 1015.2
20260502033253 11 204 0.0 1.6 0.00 0.00 0.00 93 1015.3
20260502032755 11 324 0.0 4.8 0.00 0.00 0.00 93 1015.3
20260502032253 11 157 0.0 0.0 0.00 0.00 0.00 93 1015.4
20260502031753 11 130 0.0 1.6 0.00 0.00 0.00 93 1015.4
20260502031254 11 158 0.0 1.6 0.00 0.00 0.00 93 1015.5
20260502030254 11 145 0.0 4.8 0.00 0.00 0.00 93 1015.5
20260502025753 11 180 1.6 3.2 0.00 0.00 0.00 93 1015.5
20260502025255 11 157 1.6 8.0 0.00 0.00 0.00 93 1015.4
20260502024253 11 158 0.0 8.0 0.00 0.00 0.00 93 1015.5
20260502023755 11 176 3.2 9.7 0.00 0.00 0.00 93 1015.6
20260502023254 11 190 0.0 3.2 0.00 0.00 0.00 93 1015.6
20260502022254 11 169 0.0 4.8 0.00 0.00 0.00 93 1015.6
20260502021254 11 161 1.6 8.0 0.00 0.00 0.00 93 1015.7
20260502020754 11 183 0.0 3.2 0.00 0.00 0.00 93 1015.8
20260502020254 11 302 0.0 1.6 0.00 0.00 0.00 93 1015.9
20260502015254 11 165 0.0 8.0 0.00 0.00 0.00 93 1016.1
20260502014255 11 155 0.0 3.2 0.00 0.00 0.00 93 1016.2
20260502013753 11 165 0.0 1.6 0.00 0.00 0.00 93 1016.3
20260502013254 11 169 0.0 3.2 0.00 0.00 0.00 94 1016.4
20260502012755 11 172 0.0 3.2 0.00 0.00 0.00 93 1016.4
20260502011754 11 180 0.0 1.6 0.00 0.00 0.00 93 1016.6
20260502011254 11 160 0.0 4.8 0.00 0.00 0.00 93 1016.6
20260502010754 11 145 0.0 3.2 0.00 0.00 0.00 93 1016.6
20260502005754 11 154 0.0 4.8 0.00 0.00 0.00 94 1016.7
20260502004754 11 152 1.6 3.2 0.00 0.00 0.00 94 1016.8
20260502004254 11 186 0.0 1.6 0.00 0.00 0.00 94 1016.9
20260502003755 11 148 0.0 1.6 0.00 0.00 0.00 94 1016.9
20260502003254 11 185 0.0 1.6 0.00 0.00 0.00 94 1017.0
20260502002756 11 154 0.0 1.6 0.00 0.00 0.00 94 1017.0
20260502002255 11 143 1.6 4.8 0.00 0.00 0.00 94 1017.0
20260502001755 11 153 1.6 4.8 0.00 0.00 0.00 94 1017.0
20260502001255 11 162 0.0 4.8 0.00 0.00 0.00 93 1016.9
20260502000756 11 135 0.0 3.2 0.00 0.00 0.00 93 1017.0
20260502000255 11 153 1.6 3.2 0.00 0.00 0.00 93 1017.0
20260501235755 11 156 0.0 0.0 0.00 0.00 0.00 93 1017.1
20260501235255 11 284 0.0 1.6 0.00 0.00 0.00 93 1017.2
20260501234755 11 204 0.0 1.6 0.00 0.00 0.00 93 1017.2
20260501234256 11 2 0.0 1.6 0.00 0.00 0.00 93 1017.2
20260501233755 11 201 0.0 1.6 0.00 0.00 0.00 93 1017.3
20260501233255 11 164 0.0 1.6 0.00 0.00 0.00 93 1017.2
20260501232255 11 154 0.0 1.6 0.00 0.00 0.00 93 1017.4
20260501231755 11 159 0.0 3.2 0.00 0.00 0.00 93 1017.4
20260501231256 11 130 0.0 1.6 0.00 0.00 0.00 93 1017.4
20260501230812 11 205 0.0 1.6 0.00 0.00 0.00 93 1017.3
20260501230255 11 196 0.0 1.6 0.00 0.00 0.00 93 1017.4
20260501225256 11 166 0.0 1.6 0.00 0.00 0.00 93 1017.4
20260501224756 11 208 0.0 1.6 0.00 0.00 0.00 93 1017.4
20260501224256 11 169 0.0 0.0 0.00 0.00 0.00 93 1017.5
20260501223756 11 137 0.0 3.2 0.00 0.00 0.00 93 1017.5
20260501222756 11 190 1.6 3.2 0.00 0.00 0.00 93 1017.6
20260501222256 11 122 0.0 3.2 0.00 0.00 0.00 92 1017.5
20260501221756 11 157 0.0 8.0 0.00 0.00 0.00 92 1017.5
20260501221256 11 185 0.0 4.8 0.00 0.00 0.00 92 1017.6
20260501220755 11 160 3.2 9.7 0.00 0.00 0.00 92 1017.6
20260501220256 12 329 0.0 3.2 0.00 0.00 0.00 92 1017.6
20260501215256 12 304 0.0 8.0 0.00 0.00 0.00 92 1017.6
20260501214756 12 216 0.0 8.0 0.00 0.00 0.00 92 1017.6
20260501214257 12 145 0.0 4.8 0.00 0.00 0.00 92 1017.7
20260501213256 12 156 0.0 4.8 0.00 0.00 0.00 92 1017.6
20260501212756 12 151 3.2 8.0 0.00 0.00 0.00 92 1017.7
20260501212256 12 168 1.6 4.8 0.00 0.00 0.00 91 1017.7
20260501211757 12 178 1.6 4.8 0.00 0.00 0.00 91 1017.7
20260501211257 12 157 0.0 1.6 0.00 0.00 0.00 91 1017.8
20260501210756 12 180 1.6 3.2 0.00 0.00 0.00 90 1017.8
20260501205757 12 342 0.0 3.2 0.00 0.00 0.00 91 1017.8
20260501205257 12 284 0.0 3.2 0.00 0.00 0.00 91 1017.9
20260501204756 12 336 0.0 1.6 0.00 0.00 0.00 91 1017.9
20260501204258 12 205 0.0 0.0 0.00 0.00 0.00 91 1017.9
20260501203756 12 156 1.6 4.8 0.00 0.00 0.00 90 1017.8
20260501203256 12 141 0.0 3.2 0.00 0.00 0.00 90 1017.8
20260501202756 12 46 1.6 4.8 0.00 0.00 0.00 90 1017.9
20260501202328 12 0 0.0 3.2 0.00 0.00 0.00 90 1017.9
20260501200757 12 194 0.0 1.6 0.00 0.00 0.00 90 1017.9
20260501200256 12 276 0.0 1.6 0.00 0.00 0.00 90 1017.9
20260501195757 12 190 0.0 1.6 0.00 0.00 0.00 90 1017.8
20260501195257 12 200 0.0 3.2 0.00 0.00 0.00 90 1017.7
20260501194758 12 255 0.0 4.8 0.00 0.00 0.00 90 1017.7
20260501194258 12 195 0.0 3.2 0.00 0.00 0.00 90 1017.6
20260501193258 12 154 1.6 4.8 0.00 0.00 0.00 89 1017.6
20260501192258 12 211 0.0 3.2 0.00 0.00 0.00 89 1017.6
20260501191757 12 165 0.0 1.6 0.00 0.00 0.00 89 1017.7
20260501191257 12 199 0.0 1.6 0.00 0.00 0.00 89 1017.6
20260501190757 12 84 0.0 3.2 0.00 0.00 0.00 89 1017.7
20260501190257 12 241 0.0 9.7 0.00 0.00 0.00 89 1017.7
20260501185758 12 230 1.6 8.0 0.00 0.00 0.00 88 1017.7
20260501185259 12 146 1.6 9.7 0.00 0.03 0.00 87 1017.6
20260501184758 13 151 1.6 9.7 0.00 0.05 0.00 87 1017.7
20260501184257 13 344 1.6 9.7 0.00 0.23 0.00 87 1017.7
20260501183758 13 212 0.0 3.2 0.00 0.23 0.00 86 1017.6
20260501183259 13 244 0.0 3.2 0.00 0.23 0.00 86 1017.6
20260501182829 13 92 1.6 8.0 0.00 0.23 0.00 85 1017.6
20260501182259 14 179 3.2 9.7 0.00 0.23 0.00 84 1017.6
20260501181800 14 242 0.0 8.0 0.00 0.23 0.00 84 1017.5
20260501181259 14 160 1.6 8.0 0.00 0.23 0.00 84 1017.5
20260501180758 14 215 1.6 8.0 0.00 0.23 0.00 86 1017.5